Regional Weather Roundup
Issued by NWS

Home | Current Version | Previous Version | Graphics & Text | Print | Product List | Glossary On
Versions: 1 2 3 4 5 6 7 8 9 10 11 12 13 14 15 16 17 18 19 20 21 22 23 24 25 26 27 28 29 30 31 32 33 34 35 36 37 38 39 40 41 42 43 44 45 46 47 48 49 50
000
ASUS43 KLOT 231108
RWRIL

ILLINOIS REGIONAL WEATHER ROUNDUP
NATIONAL WEATHER SERVICE CHICAGO/ROMEOVILLE IL
500 AM CST THU FEB 23 2017

NOTE: "FAIR" INDICATES FEW OR NO CLOUDS BELOW 12,000 FEET WITH NO
SIGNIFICANT WEATHER AND/OR OBSTRUCTIONS TO VISIBILITY.

* THESE STATIONS ARE NOT UNDER NWS QUALITY CONTROL. THEY ALSO MAY NOT
  REPORT WEATHER SUCH AS PRECIPITATION OR FOG.

ILZ001-002-007-009-015-016-024-231200-
NORTHWEST ILLINOIS

CITY           SKY/WX    TMP DP  RH WIND       PRES   REMARKS
MOLINE         CLOUDY   N/A N/A N/A N9        29.74F
STERLING*      MOCLDY    45  42  89 N8        29.75R
SAVANNA*       CLEAR     43  40  87 N3        29.75R
$$

ILZ003-004-008-010-011-017-018-231200-
NORTH CENTRAL ILLINOIS

CITY           SKY/WX    TMP DP  RH WIND       PRES   REMARKS
ROCKFORD       CLEAR     45  41  86 NW8       29.75R
FREEPORT*      PTCLDY    41  39  94 NW8       29.75R
ROCHELLE*      CLEAR     44  42  93 NW10      29.74R
DE KALB*       CLEAR     44  42  94 NW10      29.72R
PERU*          CLEAR     43  40  91 NW7       29.73S
$$

ILZ005-006-012>014-019>023-231200-
NORTHEAST ILLINOIS

CITY           SKY/WX    TMP DP  RH WIND       PRES   REMARKS
CHICAGO-OHARE  CLEAR     50  44  80 W7        29.70R
CHICAGO-MIDWAY CLEAR     51  45  79 W7        29.71R
AURORA         CLEAR     44  41  89 W7        29.72R
LANSING*       CLEAR     49  49  98 W3        29.71R
JOLIET*        CLEAR     49  47  93 NW5       29.71S
WAUKEGAN       CLEAR     49  42  77 NW9       29.69R
DUPAGE AIRPORT CLEAR     45  41  86 NW6       29.70R
KANKAKEE*      FOG       42  41  97 CALM      29.73R VSB 1/4
WHEELING       CLEAR     49  43  80 NW8       29.71R
MORRIS*        CLEAR     43  42  96 NW8       29.71S
ROMEOVILLE*    CLEAR     45  45 100 NW7       29.72R
NORTHERLY ISL    N/A     52  45  77 W8          N/A
$$

LMZ740>746-231200-
SOUTHERN LAKE MICHIGAN

STATION/POSITION SKY/WX   TEMP    WIND        PRES    VSBY  WAVE
                          AIR SEA DIR/SP/G                  HT/PER
                          (F)     (DEG/KT/KT) (MB)    (MI)  (FT/S)
HARRISON CRIB              54     280/ 12/ 12   N/A
BURNHAM HARBOR             52     250/  8/ 10   N/A
CALUMET HARBOR             52     260/  4/  6 1005.4R
BURNS HARBOR               47     240/  7/ 10 1006.4R
MICHIGAN CITY              47     210/ 13/ 13   N/A
$$

ILZ025>027-034>036-040-047-049-050-058-095>099-231200-
WEST-CENTRAL ILLINOIS

CITY           SKY/WX    TMP DP  RH WIND       PRES   REMARKS
QUINCY         PTCLDY    43  41  93 NE7       29.73S
GALESBURG*     CLEAR     41  40  98 N5        29.74R
MACOMB*        CLEAR     43  42  95 N5        29.75F
JACKSONVILLE*  FOG       41  41 100 CALM      29.72F VSB 1/4
PITTSFIELD*    PTCLDY    51  47  88 N6        29.73S
$$

ILZ028>032-037-038-041>044-048-051>054-059>061-231200-
CENTRAL ILLINOIS

CITY           SKY/WX    TMP DP  RH WIND       PRES   REMARKS
PONTIAC        PTCLDY    47  46  98 NW7       29.73R
BLOOMINGTON    FOG       43  43 100 SW5       29.75R VSB 1/4
DECATUR        FOG       47  45  93 CALM      29.74R VSB 1/4
PEORIA         CLEAR     49  46  90 N6        29.73R
LACON*         CLEAR     43  43 100 CALM      29.73R
LINCOLN*       FOG       42  42 100 CALM      29.74R VSB<1/4
SPRINGFIELD    FOG       44  43  96 CALM      29.74S VSB 1/4
TAYLORVILLE    FOG       48  48  99 CALM      29.74R VSB 3/4
$$

ILZ033-039-045-046-055>057-062-063-231200-
EAST-CENTRAL ILLINOIS

CITY           SKY/WX    TMP DP  RH WIND       PRES   REMARKS
CHAMPAIGN      FOG       47  45  93 SW6       29.74R VSB 1/4
RANTOUL*       FOG       48  47  99 CALM      29.74R VSB 1/4
MATTOON        CLEAR     53  53 100 S6        29.74S
PARIS*         CLEAR     53  52  97 SW8       29.76S
$$

ILZ079-100>102-231200-
SOUTHWEST ILLINOIS

CITY           SKY/WX    TMP DP  RH WIND       PRES   REMARKS
ALTON          FOG       45  45  99 SE3       29.73S VSB 1/4
BELLEVILLE     FOG       50  50 100 CALM      29.73R VSB 3/4
CAHOKIA*       CLEAR     49  48  97 SE5       29.72F
SPARTA*        PTCLDY    56  54  93 S6        29.74S
$$

ILZ064>066-069>071-074>076-080>082-084>086-088>090-092>094-231200-
SOUTH-CENTRAL ILLINOIS

CITY           SKY/WX    TMP DP  RH WIND       PRES   REMARKS
CARBONDALE     PTCLDY    53  53 100 S6        29.75S
CAIRO*         CLEAR     55  55 100 S6        29.77S
EFFINGHAM*     FOG       51  51 100 CALM      29.77S VSB 1/4
MARION         PTCLDY    55  55 100 S5        29.76S
CENTRALIA*     CLEAR     53  53 100 SE3       29.74S
SALEM*         CLEAR     55  53  93 CALM      29.75S FOG
METROPOLIS*    FOG       52  52  99 CALM      29.79S VSB 1
$$

ILZ067-068-072-073-078-083-087-091-231200-
SOUTHEAST ILLINOIS

CITY           SKY/WX    TMP DP  RH WIND       PRES   REMARKS
LAWRENCEVILLE  PTCLDY    51  51 100 S9        29.77S
FLORA*         FOG       51  51  98 SE3       29.76S VSB 1/4
FAIRFIELD*     FOG       55  55 100 CALM      29.75F VSB 1
HARRISBURG*    CLEAR     52  52 100 S3        29.78R FOG
ROBINSON*      CLOUDY    52  52 100 CALM      29.78R FOG
CARMI*         CLEAR     50  50 100 SE7       29.77S
$$

ABBREVIATIONS USED IN REMARKS
   TC - TEMPERATURE IN CELSIUS
  WCI - WIND CHILL INDEX
   HX - HEAT INDEX
  VSB - VISIBILITY
$$





USA.gov is the U.S. government's official web portal to all federal, state and local government web resources and services.